Regional Weather Roundup
Issued by NWS Bismarck, ND

Home | Current Version | Previous Version | Text Only | Print | Product List | Glossary On
Versions: 1 2 3 4 5 6 7 8 9 10 11 12 13 14 15 16 17 18 19 20 21 22 23 24 25 26 27 28 29 30 31 32 33 34 35 36 37 38 39 40 41 42 43 44 45 46 47 48 49 50
000
ASUS43 KBIS 160259
RWRBIS

NWR BROADCAST TEXT
NATIONAL WEATHER SERVICE BISMARCK ND
1000 PM CDT MON SEP 15 2014

NOTE: "FAIR" INDICATES FEW OR NO CLOUDS BELOW 12,000 FEET WITH NO
SIGNIFICANT WEATHER AND/OR OBSTRUCTIONS TO VISIBILITY.


CITY           SKY/WX    TMP DP  RH WIND       PRES   REMARKS
WILLISTON      CLEAR     44  35  70 CALM      30.06S
MINOT          CLEAR     50  37  61 SE5       30.08R
MINOT AFB      NOT AVBL
BISMARCK       CLEAR     49  38  65 SE3       30.13R
DICKINSON      NOT AVBL
GARRISON         N/A     48  42  80 CALM      30.09S
HETTINGER ARPT CLEAR     50  38  63 SE7       30.12S
JAMESTOWN      NOT AVBL
CARRINGTON     FAIR      45  41  87 SW10      30.13R
HARVEY         FAIR      50  37  62 SW7       30.10S
HAZEN          FAIR      46  39  76 S8        30.10S
LINTON         FAIR      52  39  62 S12       30.15S
MANDAN         FAIR      54  37  54 S10       30.13S
OAKES            N/A     45  41  87 S9        30.17S
WATFORD CITY   FAIR      46  36  66 CALM      30.06S HAZE
$$

CITY           SKY/WX    TMP DP  RH WIND       PRES   REMARKS
GRAND FORKS    CLEAR     49  41  74 SW8       30.08S
GRAND FORKS AF NOT AVBL
DEVILS LAKE    CLEAR     46  37  71 CALM      30.08S
FARGO          CLEAR     51  39  63 S9        30.13S
CAVALIER       FAIR      48  39  71 SW6       30.05S
GRAFTON        FAIR      48  39  71 SW8       30.06F
GWINNER        CLEAR     46  39  76 S7        30.18S
LANGDON        FAIR      41  36  81 SW9       30.07R
ROLLA          FAIR      46  39  76 SW8       30.08S
$$

CITY           SKY/WX    TMP DP  RH WIND       PRES   REMARKS
ABERDEEN       CLEAR     43  38  82 S7        30.19S
MOBRIDGE       CLEAR     48  42  80 SE7       30.14S
RAPID CITY     CLEAR     53  43  68 S5        30.12S
GLASGOW        CLEAR     53  37  54 E10       30.04S
SIDNEY         CLEAR     48  36  61 CALM      30.08S
WOLF POINT     CLEAR     50  35  56 W5        30.05S
GLENDIVE       CLEAR     54  36  50 NE5       30.08S
MILES CITY     CLEAR     60  39  45 NE8       30.04S
BAKER          CLEAR     51  42  71 VRB5      30.09R
$$

CITY           SKY/WX    TMP DP  RH WIND       PRES   REMARKS
BILLINGS       CLEAR     67  42  40 SE7       30.06R
GREAT FALLS    CLEAR     59  40  49 E6        30.02R
$$



USA.gov is the U.S. government's official web portal to all federal, state and local government web resources and services.